Torna al catalogo

GLOBALSTAR M060

AttivoComunicazioniLEO
NORAD 26083·PAYLOAD·🇺🇸 United States

Lanciato Feb 8, 2000 da Cape Canaveral Space Force Station

Loading…

Prossimi Passaggi (prossime 24 ore)

TLE

AggiornatoSource: Space-Track

Epoca: Sep 14, 2026, 08:24 UTC

1 26083U 00008C   26257.35008148 -.00000060  00000-0  31241-3 0  9999
2 26083  51.9998 224.4584 0003444 335.0248 191.4290 12.17681781207693

Traccia GLOBALSTAR M060 in tempo reale con AllMySat

Download on the App Store